{"data":{"norad_id":66213,"epoch":"2026-09-20T20:27:47.493792Z","epoch_age_seconds":66241,"freshness":"FRESH","line1":"1 66213U 25244H   26263.85263303  .00012669  00000+0  38533-3 0  9992","line2":"2 66213  53.1591  40.2960 0000948  84.6919 275.4192 15.34409533 51589","mean_motion":15.34409533,"eccentricity":9.48e-5,"inclination_deg":53.1591,"raan_deg":40.296,"arg_perigee_deg":84.6919,"mean_anomaly_deg":275.4192,"bstar":0.00038533,"rev_number":5158,"period_min":93.847175022732,"perigee_km":462.0263973001,"apogee_km":463.32341523753,"semimajor_km":6840.8119062688,"source":"CELESTRAK","updated_at":"2026-09-21T09:00:35.841037Z"}}